| time (UTC) | temp F | wind direction | speed MPH | gust MPH | rain 1hr in | rain 24hr in | rain mn in | humidity % | barometer mb |
| 20260506001457 | 77 | 200 | 0.0 | 1.0 | 0.00 | 0.00 | 0.00 | 44 | 1010.8 |
| 20260506000457 | 77 | 178 | 2.0 | 3.0 | 0.00 | 0.00 | 0.00 | 43 | 1010.7 |
| 20260505235457 | 77 | 237 | 0.0 | 5.0 | 0.00 | 0.00 | 0.00 | 43 | 1010.6 |
| 20260505234457 | 78 | 168 | 0.0 | 4.0 | 0.00 | 0.00 | 0.00 | 41 | 1010.5 |
| 20260505233457 | 79 | 205 | 1.0 | 3.0 | 0.00 | 0.00 | 0.00 | 40 | 1010.4 |
| 20260505232457 | 79 | 200 | 2.0 | 3.0 | 0.00 | 0.00 | 0.00 | 40 | 1010.3 |
| 20260505231457 | 80 | 144 | 2.0 | 3.0 | 0.00 | 0.00 | 0.00 | 38 | 1010.4 |
| 20260505230457 | 80 | 155 | 2.0 | 2.0 | 0.00 | 0.00 | 0.00 | 39 | 1010.3 |
| 20260505225457 | 80 | 199 | 2.0 | 6.0 | 0.00 | 0.00 | 0.00 | 38 | 1010.2 |
| 20260505224457 | 80 | 160 | 1.0 | 3.0 | 0.00 | 0.00 | 0.00 | 37 | 1010.2 |
| 20260505223457 | 80 | 182 | 2.0 | 4.0 | 0.00 | 0.00 | 0.00 | 38 | 1010.2 |
| 20260505222457 | 81 | 67 | 0.0 | 7.0 | 0.00 | 0.00 | 0.00 | 37 | 1010.2 |
| 20260505221457 | 81 | 240 | 1.0 | 3.0 | 0.00 | 0.00 | 0.00 | 36 | 1010.2 |
| 20260505220557 | 81 | 180 | 3.0 | 6.0 | 0.00 | 0.00 | 0.00 | 35 | 1010.1 |
| 20260505215457 | 82 | 342 | 1.0 | 5.0 | 0.00 | 0.00 | 0.00 | 35 | 1010.1 |
| 20260505214457 | 82 | 5 | 0.0 | 7.0 | 0.00 | 0.00 | 0.00 | 34 | 1010.1 |
| 20260505213457 | 83 | 253 | 3.0 | 4.0 | 0.00 | 0.00 | 0.00 | 32 | 1010.1 |
| 20260505212457 | 83 | 215 | 0.0 | 8.0 | 0.00 | 0.00 | 0.00 | 32 | 1010.1 |
| 20260505211457 | 83 | 298 | 1.0 | 5.0 | 0.00 | 0.00 | 0.00 | 35 | 1010.0 |
| 20260505210457 | 83 | 152 | 1.0 | 7.0 | 0.00 | 0.00 | 0.00 | 34 | 1010.2 |
| 20260505204458 | 84 | 130 | 2.0 | 8.0 | 0.00 | 0.00 | 0.00 | 31 | 1010.1 |
| 20260505203457 | 85 | 207 | 0.0 | 6.0 | 0.00 | 0.00 | 0.00 | 34 | 1010.1 |
| 20260505202457 | 84 | 227 | 4.0 | 4.0 | 0.00 | 0.00 | 0.00 | 33 | 1010.2 |
| 20260505201457 | 84 | 247 | 2.0 | 10.0 | 0.00 | 0.00 | 0.00 | 36 | 1010.4 |
| 20260505200457 | 84 | 212 | 1.0 | 3.0 | 0.00 | 0.00 | 0.00 | 36 | 1010.6 |
| 20260505195457 | 84 | 132 | 2.0 | 7.0 | 0.00 | 0.00 | 0.00 | 33 | 1010.7 |
| 20260505194457 | 84 | 148 | 1.0 | 5.0 | 0.00 | 0.00 | 0.00 | 33 | 1010.8 |
| 20260505193457 | 84 | 163 | 9.0 | 9.0 | 0.00 | 0.00 | 0.00 | 36 | 1011.0 |
| 20260505192527 | 84 | 165 | 3.0 | 4.0 | 0.00 | 0.00 | 0.00 | 39 | 1011.1 |
| 20260505191457 | 84 | 275 | 5.0 | 6.0 | 0.00 | 0.00 | 0.00 | 37 | 1011.3 |
| 20260505190527 | 84 | 157 | 1.0 | 3.0 | 0.00 | 0.00 | 0.00 | 38 | 1011.3 |
| 20260505185457 | 84 | 355 | 2.0 | 4.0 | 0.00 | 0.00 | 0.00 | 37 | 1011.5 |
| 20260505184457 | 84 | 312 | 1.0 | 7.0 | 0.00 | 0.00 | 0.00 | 37 | 1011.6 |
| 20260505183457 | 83 | 310 | 3.0 | 5.0 | 0.00 | 0.00 | 0.00 | 39 | 1011.7 |
| 20260505182457 | 84 | 115 | 7.0 | 8.0 | 0.00 | 0.00 | 0.00 | 39 | 1011.6 |
| 20260505180457 | 82 | 337 | 1.0 | 8.0 | 0.00 | 0.00 | 0.00 | 39 | 1012.0 |
| 20260505174458 | 82 | 296 | 2.0 | 8.0 | 0.00 | 0.00 | 0.00 | 42 | 1012.0 |
| 20260505173458 | 82 | 194 | 2.0 | 4.0 | 0.00 | 0.00 | 0.00 | 41 | 1012.0 |
| 20260505172457 | 82 | 156 | 2.0 | 5.0 | 0.00 | 0.00 | 0.00 | 43 | 1012.1 |
| 20260505171457 | 81 | 74 | 2.0 | 3.0 | 0.00 | 0.00 | 0.00 | 42 | 1012.3 |
| 20260505170458 | 80 | 198 | 2.0 | 3.0 | 0.00 | 0.00 | 0.00 | 43 | 1012.4 |
| 20260505165457 | 80 | 211 | 3.0 | 4.0 | 0.00 | 0.00 | 0.00 | 41 | 1012.6 |
| 20260505164458 | 80 | 117 | 3.0 | 6.0 | 0.00 | 0.00 | 0.00 | 42 | 1012.8 |
| 20260505163458 | 80 | 178 | 0.0 | 3.0 | 0.00 | 0.00 | 0.00 | 46 | 1012.8 |
| 20260505162458 | 80 | 240 | 2.0 | 3.0 | 0.00 | 0.00 | 0.00 | 48 | 1012.8 |
| 20260505161457 | 79 | 278 | 1.0 | 3.0 | 0.00 | 0.00 | 0.00 | 48 | 1012.9 |
| 20260505160458 | 78 | 293 | 1.0 | 4.0 | 0.00 | 0.00 | 0.00 | 50 | 1013.1 |
| 20260505152457 | 76 | 193 | 5.0 | 5.0 | 0.00 | 0.00 | 0.00 | 54 | 1013.1 |
| 20260505151458 | 75 | 230 | 0.0 | 2.0 | 0.00 | 0.00 | 0.00 | 55 | 1013.1 |
| 20260505150458 | 74 | 262 | 0.0 | 5.0 | 0.00 | 0.00 | 0.00 | 54 | 1013.1 |
| 20260505140528 | 70 | 211 | 1.0 | 3.0 | 0.00 | 0.00 | 0.00 | 59 | 1013.1 |
| 20260505124528 | 66 | 225 | 1.0 | 6.0 | 0.00 | 0.00 | 0.00 | 66 | 1013.2 |
| 20260505123458 | 65 | 298 | 3.0 | 6.0 | 0.00 | 0.00 | 0.00 | 66 | 1013.0 |
| 20260505122458 | 66 | 186 | 1.0 | 3.0 | 0.00 | 0.00 | 0.00 | 65 | 1013.1 |
| 20260505121458 | 66 | 324 | 0.0 | 5.0 | 0.00 | 0.00 | 0.00 | 65 | 1013.1 |
| 20260505120458 | 65 | 259 | 0.0 | 4.0 | 0.00 | 0.00 | 0.00 | 66 | 1013.0 |
| 20260505115458 | 65 | 286 | 3.0 | 5.0 | 0.00 | 0.00 | 0.00 | 67 | 1012.9 |
| 20260505114458 | 64 | 257 | 1.0 | 5.0 | 0.00 | 0.00 | 0.00 | 66 | 1012.9 |
| 20260505113458 | 64 | 220 | 1.0 | 3.0 | 0.00 | 0.00 | 0.00 | 68 | 1012.8 |
| 20260505112458 | 64 | 195 | 0.0 | 3.0 | 0.00 | 0.00 | 0.00 | 68 | 1012.7 |
| 20260505111458 | 63 | 251 | 1.0 | 5.0 | 0.00 | 0.00 | 0.00 | 68 | 1012.7 |
| 20260505110528 | 63 | 279 | 2.0 | 3.0 | 0.00 | 0.00 | 0.00 | 69 | 1012.7 |
| 20260505101458 | 63 | 261 | 0.0 | 4.0 | 0.00 | 0.00 | 0.00 | 70 | 1012.4 |
| 20260505100458 | 62 | 246 | 2.0 | 2.0 | 0.00 | 0.00 | 0.00 | 70 | 1012.4 |
| 20260505094458 | 63 | 221 | 0.0 | 2.0 | 0.00 | 0.00 | 0.00 | 69 | 1012.3 |
| 20260505093458 | 63 | 240 | 1.0 | 2.0 | 0.00 | 0.00 | 0.00 | 69 | 1012.3 |
| 20260505092458 | 63 | 199 | 3.0 | 4.0 | 0.00 | 0.00 | 0.00 | 69 | 1012.4 |
| 20260505091458 | 63 | 239 | 1.0 | 3.0 | 0.00 | 0.00 | 0.00 | 69 | 1012.3 |
| 20260505090458 | 63 | 275 | 1.0 | 1.0 | 0.00 | 0.00 | 0.00 | 68 | 1012.1 |
| 20260505085458 | 64 | 194 | 1.0 | 3.0 | 0.00 | 0.00 | 0.00 | 68 | 1012.1 |
| 20260505084528 | 63 | 243 | 1.0 | 6.0 | 0.00 | 0.00 | 0.00 | 68 | 1012.0 |
| 20260505083458 | 64 | 294 | 2.0 | 3.0 | 0.00 | 0.00 | 0.00 | 68 | 1012.1 |
| 20260505082528 | 64 | 166 | 1.0 | 5.0 | 0.00 | 0.00 | 0.00 | 68 | 1012.0 |
| 20260505081458 | 64 | 195 | 1.0 | 8.0 | 0.00 | 0.00 | 0.00 | 67 | 1012.1 |
| 20260505080458 | 64 | 324 | 2.0 | 4.0 | 0.00 | 0.00 | 0.00 | 68 | 1012.1 |
| 20260505075458 | 64 | 130 | 1.0 | 3.0 | 0.00 | 0.00 | 0.00 | 68 | 1012.0 |
| 20260505074458 | 64 | 281 | 0.0 | 4.0 | 0.00 | 0.00 | 0.00 | 68 | 1012.0 |
| 20260505072528 | 64 | 209 | 1.0 | 3.0 | 0.00 | 0.00 | 0.00 | 68 | 1011.8 |
| 20260505071458 | 64 | 236 | 1.0 | 3.0 | 0.00 | 0.00 | 0.00 | 68 | 1011.8 |
| 20260505070458 | 64 | 257 | 1.0 | 2.0 | 0.00 | 0.00 | 0.00 | 68 | 1011.8 |
| 20260505065458 | 64 | 227 | 1.0 | 4.0 | 0.00 | 0.00 | 0.00 | 67 | 1011.8 |
| 20260505064528 | 64 | 207 | 2.0 | 4.0 | 0.00 | 0.00 | 0.00 | 67 | 1011.7 |
| 20260505063458 | 65 | 299 | 0.0 | 5.0 | 0.00 | 0.00 | 0.00 | 67 | 1011.8 |
| 20260505062458 | 65 | 205 | 0.0 | 6.0 | 0.00 | 0.00 | 0.00 | 66 | 1011.7 |
| 20260505061458 | 65 | 232 | 2.0 | 3.0 | 0.00 | 0.00 | 0.00 | 66 | 1011.7 |
| 20260505060458 | 65 | 219 | 6.0 | 6.0 | 0.00 | 0.00 | 0.00 | 66 | 1011.7 |
| 20260505055458 | 65 | 202 | 4.0 | 6.0 | 0.00 | 0.00 | 0.00 | 65 | 1011.7 |
| 20260505054458 | 65 | 169 | 0.0 | 9.0 | 0.00 | 0.00 | 0.00 | 64 | 1011.8 |
| 20260505053458 | 64 | 163 | 0.0 | 2.0 | 0.00 | 0.00 | 0.00 | 64 | 1011.8 |
| 20260505052458 | 64 | 142 | 0.0 | 2.0 | 0.00 | 0.00 | 0.00 | 63 | 1011.8 |
| 20260505051458 | 64 | 242 | 2.0 | 3.0 | 0.00 | 0.00 | 0.00 | 62 | 1011.7 |
| 20260505050458 | 63 | 266 | 0.0 | 2.0 | 0.00 | 0.00 | 0.00 | 62 | 1011.6 |
| 20260505041458 | 64 | 331 | 0.0 | 1.0 | 0.00 | 0.00 | 0.00 | 61 | 1011.6 |
| 20260505040458 | 64 | 343 | 0.0 | 0.0 | 0.00 | 0.00 | 0.00 | 59 | 1011.6 |
| 20260505035458 | 64 | 344 | 0.0 | 0.0 | 0.00 | 0.00 | 0.00 | 60 | 1011.5 |
| 20260505034458 | 64 | 277 | 0.0 | 0.0 | 0.00 | 0.00 | 0.00 | 60 | 1011.5 |
| 20260505032458 | 64 | 283 | 0.0 | 0.0 | 0.00 | 0.00 | 0.00 | 60 | 1011.5 |
| 20260505031458 | 64 | 283 | 0.0 | 0.0 | 0.00 | 0.00 | 0.00 | 60 | 1011.5 |
| 20260505030458 | 64 | 283 | 0.0 | 0.0 | 0.00 | 0.00 | 0.00 | 61 | 1011.5 |
| 20260505025458 | 64 | 283 | 0.0 | 0.0 | 0.00 | 0.00 | 0.00 | 59 | 1011.5 |
| 20260505024528 | 64 | 283 | 0.0 | 0.0 | 0.00 | 0.00 | 0.00 | 60 | 1011.5 |
| 20260505023458 | 64 | 283 | 0.0 | 0.0 | 0.00 | 0.00 | 0.00 | 60 | 1011.5 |
| 20260505022458 | 64 | 283 | 0.0 | 0.0 | 0.00 | 0.00 | 0.00 | 62 | 1011.5 |
| 20260505021458 | 64 | 283 | 0.0 | 0.0 | 0.00 | 0.00 | 0.00 | 61 | 1011.3 |
| 20260505020458 | 64 | 283 | 0.0 | 0.0 | 0.00 | 0.00 | 0.00 | 62 | 1011.4 |
| 20260505015458 | 64 | 283 | 0.0 | 0.0 | 0.00 | 0.00 | 0.00 | 61 | 1011.4 |
| 20260505014458 | 64 | 283 | 0.0 | 0.0 | 0.00 | 0.00 | 0.00 | 62 | 1011.3 |
| 20260505013458 | 64 | 283 | 0.0 | 0.0 | 0.00 | 0.00 | 0.00 | 60 | 1011.3 |
| 20260505012528 | 65 | 283 | 0.0 | 0.0 | 0.00 | 0.00 | 0.00 | 60 | 1011.3 |
| 20260505011458 | 65 | 283 | 0.0 | 0.0 | 0.00 | 0.00 | 0.00 | 58 | 1011.2 |
| 20260505010458 | 66 | 283 | 0.0 | 0.0 | 0.00 | 0.00 | 0.00 | 56 | 1011.2 |
| 20260505005458 | 67 | 283 | 0.0 | 1.0 | 0.00 | 0.00 | 0.00 | 54 | 1011.0 |
| 20260505004458 | 66 | 285 | 0.0 | 0.0 | 0.00 | 0.00 | 0.00 | 54 | 1010.9 |
| 20260505003458 | 66 | 285 | 0.0 | 0.0 | 0.00 | 0.00 | 0.00 | 52 | 1011.0 |
| 20260505002558 | 67 | 285 | 0.0 | 0.0 | 0.00 | 0.00 | 0.00 | 50 | 1011.0 |